| time (UTC) | temp F | wind direction | speed MPH | gust MPH | rain 1hr in | rain 24hr in | rain mn in | humidity % | barometer mb |
| 20260507144256 | 45 | 0 | 4.0 | 9.0 | 0.00 | 0.00 | 0.00 | 56 | 1007.6 |
| 20260507143752 | 45 | 20 | 5.0 | 10.0 | 0.00 | 0.00 | 0.00 | 55 | 1007.6 |
| 20260507143250 | 46 | 9 | 3.0 | 16.0 | 0.00 | 0.00 | 0.00 | 55 | 1007.6 |
| 20260507142746 | 46 | 352 | 3.0 | 9.0 | 0.00 | 0.00 | 0.00 | 53 | 1007.4 |
| 20260507142243 | 46 | 308 | 11.0 | 11.0 | 0.00 | 0.00 | 0.00 | 54 | 1007.7 |
| 20260507141739 | 46 | 56 | 4.0 | 14.0 | 0.00 | 0.00 | 0.00 | 57 | 1007.8 |
| 20260507141236 | 48 | 11 | 7.0 | 15.0 | 0.00 | 0.00 | 0.00 | 56 | 1007.9 |
| 20260507140732 | 48 | 114 | 4.0 | 16.0 | 0.00 | 0.00 | 0.00 | 56 | 1007.7 |
| 20260507140230 | 48 | 251 | 1.0 | 8.0 | 0.00 | 0.00 | 0.00 | 59 | 1007.9 |
| 20260507135727 | 48 | 55 | 1.0 | 4.0 | 0.00 | 0.00 | 0.00 | 60 | 1007.9 |
| 20260507135224 | 48 | 255 | 3.0 | 7.0 | 0.00 | 0.00 | 0.00 | 59 | 1007.9 |
| 20260507134720 | 47 | 74 | 2.0 | 7.0 | 0.00 | 0.00 | 0.00 | 61 | 1007.9 |
| 20260507134217 | 47 | 192 | 2.0 | 6.0 | 0.00 | 0.00 | 0.00 | 64 | 1007.9 |
| 20260507133713 | 46 | 331 | 5.0 | 10.0 | 0.00 | 0.00 | 0.00 | 64 | 1007.9 |
| 20260507133210 | 46 | 240 | 2.0 | 8.0 | 0.00 | 0.00 | 0.00 | 65 | 1008.1 |
| 20260507132707 | 46 | 234 | 2.0 | 8.0 | 0.00 | 0.00 | 0.00 | 65 | 1007.9 |
| 20260507132203 | 45 | 208 | 3.0 | 4.0 | 0.00 | 0.00 | 0.00 | 66 | 1008.2 |
| 20260507131700 | 45 | 308 | 1.0 | 5.0 | 0.00 | 0.00 | 0.00 | 68 | 1008.0 |
| 20260507131158 | 44 | 242 | 2.0 | 9.0 | 0.00 | 0.00 | 0.00 | 67 | 1007.9 |
| 20260507130654 | 44 | 48 | 0.0 | 5.0 | 0.00 | 0.00 | 0.00 | 69 | 1008.2 |
| 20260507130152 | 44 | 267 | 1.0 | 3.0 | 0.00 | 0.00 | 0.00 | 68 | 1008.1 |
| 20260507125651 | 43 | 246 | 0.0 | 4.0 | 0.00 | 0.00 | 0.00 | 69 | 1008.1 |
| 20260507125148 | 41 | 228 | 0.0 | 3.0 | 0.00 | 0.00 | 0.00 | 71 | 1008.2 |
| 20260507124644 | 41 | 281 | 2.0 | 2.0 | 0.00 | 0.00 | 0.00 | 69 | 1008.1 |
| 20260507124142 | 41 | 218 | 0.0 | 3.0 | 0.00 | 0.00 | 0.00 | 65 | 1008.3 |
| 20260507123640 | 41 | 247 | 1.0 | 5.0 | 0.00 | 0.00 | 0.00 | 65 | 1008.2 |
| 20260507123137 | 41 | 255 | 2.0 | 5.0 | 0.00 | 0.00 | 0.00 | 64 | 1008.2 |
| 20260507122632 | 41 | 274 | 2.0 | 2.0 | 0.00 | 0.00 | 0.00 | 66 | 1008.2 |
| 20260507122128 | 41 | 297 | 1.0 | 4.0 | 0.00 | 0.00 | 0.00 | 68 | 1007.9 |
| 20260507121624 | 39 | 254 | 0.0 | 3.0 | 0.00 | 0.00 | 0.00 | 70 | 1008.0 |
| 20260507121120 | 38 | 232 | 4.0 | 7.0 | 0.00 | 0.00 | 0.00 | 68 | 1008.1 |
| 20260507120616 | 37 | 207 | 3.0 | 6.0 | 0.00 | 0.00 | 0.00 | 70 | 1007.8 |
| 20260507120113 | 37 | 225 | 2.0 | 5.0 | 0.00 | 0.00 | 0.00 | 70 | 1007.8 |
| 20260507115609 | 37 | 254 | 1.0 | 4.0 | 0.00 | 0.00 | 0.00 | 71 | 1007.9 |
| 20260507115105 | 37 | 215 | 3.0 | 6.0 | 0.00 | 0.00 | 0.00 | 71 | 1007.9 |
| 20260507114601 | 37 | 223 | 4.0 | 6.0 | 0.00 | 0.00 | 0.00 | 71 | 1007.9 |
| 20260507114059 | 36 | 206 | 3.0 | 5.0 | 0.00 | 0.00 | 0.00 | 71 | 1008.1 |
| 20260507113555 | 36 | 202 | 2.0 | 5.0 | 0.00 | 0.00 | 0.00 | 71 | 1007.7 |
| 20260507113053 | 36 | 294 | 1.0 | 5.0 | 0.00 | 0.00 | 0.00 | 73 | 1007.8 |
| 20260507112551 | 36 | 249 | 2.0 | 4.0 | 0.00 | 0.00 | 0.00 | 72 | 1007.9 |
| 20260507112047 | 35 | 221 | 2.0 | 5.0 | 0.00 | 0.00 | 0.00 | 73 | 1007.8 |
| 20260507111544 | 35 | 227 | 1.0 | 4.0 | 0.00 | 0.00 | 0.00 | 74 | 1007.8 |
| 20260507111041 | 34 | 222 | 3.0 | 4.0 | 0.00 | 0.00 | 0.00 | 75 | 1007.7 |
| 20260507110537 | 34 | 215 | 2.0 | 4.0 | 0.00 | 0.00 | 0.00 | 75 | 1008.0 |
| 20260507110034 | 33 | 220 | 2.0 | 4.0 | 0.00 | 0.00 | 0.00 | 76 | 1007.7 |
| 20260507105531 | 33 | 195 | 0.0 | 4.0 | 0.00 | 0.00 | 0.00 | 76 | 1007.9 |
| 20260507105026 | 33 | 217 | 3.0 | 5.0 | 0.00 | 0.00 | 0.00 | 76 | 1007.9 |
| 20260507104524 | 33 | 233 | 2.0 | 4.0 | 0.00 | 0.00 | 0.00 | 76 | 1007.9 |
| 20260507104021 | 33 | 197 | 2.0 | 3.0 | 0.00 | 0.00 | 0.00 | 76 | 1007.9 |
| 20260507103517 | 33 | 236 | 2.0 | 4.0 | 0.00 | 0.00 | 0.00 | 76 | 1007.7 |
| 20260507103013 | 33 | 193 | 3.0 | 5.0 | 0.00 | 0.00 | 0.00 | 76 | 1007.6 |
| 20260507102510 | 33 | 201 | 3.0 | 7.0 | 0.00 | 0.00 | 0.00 | 76 | 1007.9 |
| 20260507102007 | 34 | 195 | 3.0 | 5.0 | 0.00 | 0.00 | 0.00 | 75 | 1007.7 |
| 20260507101502 | 34 | 200 | 3.0 | 7.0 | 0.00 | 0.00 | 0.00 | 75 | 1007.7 |
| 20260507100958 | 34 | 224 | 3.0 | 5.0 | 0.00 | 0.00 | 0.00 | 75 | 1008.1 |
| 20260507100450 | 34 | 206 | 3.0 | 5.0 | 0.00 | 0.00 | 0.00 | 74 | 1008.1 |
| 20260507095948 | 34 | 236 | 2.0 | 4.0 | 0.00 | 0.00 | 0.00 | 75 | 1008.0 |
| 20260507095445 | 34 | 213 | 3.0 | 4.0 | 0.00 | 0.00 | 0.00 | 75 | 1008.1 |
| 20260507094942 | 34 | 215 | 4.0 | 5.0 | 0.00 | 0.00 | 0.00 | 75 | 1008.0 |
| 20260507094438 | 34 | 212 | 4.0 | 5.0 | 0.00 | 0.00 | 0.00 | 75 | 1008.1 |
| 20260507093935 | 34 | 195 | 5.0 | 5.0 | 0.00 | 0.00 | 0.00 | 75 | 1008.1 |
| 20260507093433 | 34 | 215 | 2.0 | 5.0 | 0.00 | 0.00 | 0.00 | 74 | 1008.0 |
| 20260507092931 | 34 | 210 | 3.0 | 6.0 | 0.00 | 0.00 | 0.00 | 74 | 1007.9 |
| 20260507092427 | 34 | 203 | 5.0 | 6.0 | 0.00 | 0.00 | 0.00 | 74 | 1008.1 |
| 20260507091924 | 33 | 204 | 5.0 | 7.0 | 0.00 | 0.00 | 0.00 | 76 | 1007.7 |
| 20260507091421 | 33 | 188 | 3.0 | 4.0 | 0.00 | 0.00 | 0.00 | 77 | 1007.9 |
| 20260507090916 | 33 | 180 | 2.0 | 3.0 | 0.00 | 0.00 | 0.00 | 76 | 1008.1 |
| 20260507090413 | 33 | 198 | 3.0 | 4.0 | 0.00 | 0.00 | 0.00 | 77 | 1008.0 |
| 20260507085909 | 33 | 200 | 3.0 | 4.0 | 0.00 | 0.00 | 0.00 | 77 | 1008.1 |
| 20260507085406 | 33 | 188 | 3.0 | 4.0 | 0.00 | 0.00 | 0.00 | 77 | 1008.2 |
| 20260507084904 | 33 | 188 | 2.0 | 4.0 | 0.00 | 0.00 | 0.00 | 78 | 1008.6 |
| 20260507084400 | 33 | 199 | 2.0 | 4.0 | 0.00 | 0.00 | 0.00 | 77 | 1008.6 |
| 20260507083857 | 33 | 182 | 3.0 | 4.0 | 0.00 | 0.00 | 0.00 | 77 | 1008.5 |
| 20260507083354 | 33 | 193 | 3.0 | 5.0 | 0.00 | 0.00 | 0.00 | 76 | 1008.6 |
| 20260507082850 | 33 | 195 | 3.0 | 5.0 | 0.00 | 0.00 | 0.00 | 76 | 1008.1 |
| 20260507082345 | 33 | 196 | 3.0 | 4.0 | 0.00 | 0.00 | 0.00 | 76 | 1008.5 |
| 20260507081843 | 33 | 204 | 3.0 | 4.0 | 0.00 | 0.00 | 0.00 | 76 | 1008.3 |
| 20260507081339 | 33 | 199 | 2.0 | 3.0 | 0.00 | 0.00 | 0.00 | 76 | 1008.7 |
| 20260507080836 | 34 | 192 | 3.0 | 4.0 | 0.00 | 0.00 | 0.00 | 75 | 1008.6 |
| 20260507080332 | 34 | 195 | 3.0 | 4.0 | 0.00 | 0.00 | 0.00 | 75 | 1008.2 |
| 20260507075828 | 34 | 207 | 3.0 | 5.0 | 0.00 | 0.00 | 0.00 | 74 | 1008.6 |
| 20260507075324 | 34 | 206 | 3.0 | 4.0 | 0.00 | 0.00 | 0.00 | 74 | 1008.3 |
| 20260507074820 | 34 | 191 | 3.0 | 4.0 | 0.00 | 0.00 | 0.00 | 74 | 1008.6 |
| 20260507074318 | 34 | 205 | 3.0 | 4.0 | 0.00 | 0.00 | 0.00 | 74 | 1008.9 |
| 20260507073815 | 35 | 204 | 3.0 | 4.0 | 0.00 | 0.00 | 0.00 | 73 | 1008.8 |
| 20260507073312 | 35 | 201 | 2.0 | 4.0 | 0.00 | 0.00 | 0.00 | 72 | 1008.7 |
| 20260507072809 | 35 | 199 | 3.0 | 6.0 | 0.00 | 0.00 | 0.00 | 72 | 1008.8 |
| 20260507072308 | 35 | 212 | 3.0 | 7.0 | 0.00 | 0.00 | 0.00 | 72 | 1008.8 |
| 20260507071804 | 35 | 207 | 3.0 | 4.0 | 0.00 | 0.00 | 0.00 | 73 | 1008.7 |
| 20260507071300 | 35 | 196 | 3.0 | 5.0 | 0.00 | 0.00 | 0.00 | 73 | 1008.7 |
| 20260507070757 | 35 | 199 | 3.0 | 4.0 | 0.00 | 0.00 | 0.00 | 74 | 1009.0 |
| 20260507070254 | 35 | 201 | 3.0 | 5.0 | 0.00 | 0.00 | 0.00 | 73 | 1009.2 |
| 20260507065751 | 35 | 205 | 5.0 | 7.0 | 0.00 | 0.00 | 0.00 | 73 | 1009.2 |
| 20260507065247 | 35 | 210 | 3.0 | 5.0 | 0.00 | 0.00 | 0.00 | 74 | 1009.1 |
| 20260507064744 | 34 | 197 | 2.0 | 3.0 | 0.00 | 0.00 | 0.00 | 75 | 1009.1 |
| 20260507064243 | 35 | 208 | 3.0 | 5.0 | 0.00 | 0.00 | 0.00 | 74 | 1009.0 |
| 20260507063740 | 35 | 205 | 2.0 | 4.0 | 0.00 | 0.00 | 0.00 | 73 | 1008.9 |
| 20260507063237 | 35 | 201 | 3.0 | 5.0 | 0.00 | 0.00 | 0.00 | 73 | 1009.1 |
| 20260507062734 | 35 | 199 | 2.0 | 3.0 | 0.00 | 0.00 | 0.00 | 73 | 1009.0 |
| 20260507062231 | 35 | 204 | 3.0 | 4.0 | 0.00 | 0.00 | 0.00 | 73 | 1009.3 |
| 20260507061730 | 35 | 234 | 1.0 | 3.0 | 0.00 | 0.00 | 0.00 | 73 | 1009.2 |
| 20260507061227 | 35 | 194 | 3.0 | 4.0 | 0.00 | 0.00 | 0.00 | 72 | 1009.3 |
| 20260507060725 | 35 | 197 | 3.0 | 3.0 | 0.00 | 0.00 | 0.00 | 73 | 1009.2 |
| 20260507060221 | 35 | 220 | 1.0 | 3.0 | 0.00 | 0.00 | 0.00 | 73 | 1009.2 |
| 20260507055718 | 35 | 197 | 2.0 | 2.0 | 0.00 | 0.00 | 0.00 | 73 | 1009.3 |
| 20260507055213 | 35 | 200 | 2.0 | 3.0 | 0.00 | 0.00 | 0.00 | 73 | 1009.2 |
| 20260507054709 | 35 | 211 | 3.0 | 4.0 | 0.00 | 0.00 | 0.00 | 72 | 1009.2 |
| 20260507054207 | 35 | 210 | 4.0 | 4.0 | 0.00 | 0.00 | 0.00 | 73 | 1009.6 |
| 20260507053704 | 35 | 204 | 4.0 | 5.0 | 0.00 | 0.00 | 0.00 | 73 | 1009.4 |
| 20260507053202 | 35 | 206 | 3.0 | 5.0 | 0.00 | 0.00 | 0.00 | 73 | 1009.4 |
| 20260507052701 | 35 | 205 | 3.0 | 5.0 | 0.00 | 0.00 | 0.00 | 72 | 1009.6 |
| 20260507052156 | 35 | 198 | 3.0 | 5.0 | 0.00 | 0.00 | 0.00 | 73 | 1009.5 |
| 20260507051654 | 35 | 210 | 4.0 | 4.0 | 0.00 | 0.00 | 0.00 | 73 | 1009.5 |
| 20260507051150 | 35 | 201 | 3.0 | 4.0 | 0.00 | 0.00 | 0.00 | 74 | 1009.5 |
| 20260507050647 | 34 | 192 | 2.0 | 4.0 | 0.00 | 0.00 | 0.00 | 74 | 1009.6 |
| 20260507050144 | 34 | 183 | 1.0 | 3.0 | 0.00 | 0.00 | 0.00 | 74 | 1009.4 |
| 20260507045641 | 34 | 183 | 2.0 | 3.0 | 0.00 | 0.00 | 0.00 | 74 | 1009.6 |
| 20260507045137 | 34 | 192 | 0.0 | 2.0 | 0.00 | 0.00 | 0.00 | 74 | 1009.6 |
| 20260507044635 | 34 | 183 | 2.0 | 2.0 | 0.00 | 0.00 | 0.00 | 74 | 1009.6 |
| 20260507044131 | 34 | 197 | 1.0 | 2.0 | 0.00 | 0.00 | 0.00 | 73 | 1009.5 |
| 20260507043627 | 35 | 195 | 0.0 | 2.0 | 0.00 | 0.00 | 0.00 | 73 | 1009.5 |
| 20260507043124 | 34 | 181 | 0.0 | 2.0 | 0.00 | 0.00 | 0.00 | 74 | 1009.7 |
| 20260507042621 | 34 | 177 | 1.0 | 1.0 | 0.00 | 0.00 | 0.00 | 74 | 1009.7 |
| 20260507042115 | 34 | 170 | 0.0 | 1.0 | 0.00 | 0.00 | 0.00 | 74 | 1009.9 |
| 20260507041612 | 34 | 199 | 0.0 | 1.0 | 0.00 | 0.00 | 0.00 | 74 | 1009.8 |
| 20260507041104 | 34 | 224 | 0.0 | 0.0 | 0.00 | 0.00 | 0.00 | 74 | 1009.8 |
| 20260507040601 | 35 | 205 | 0.0 | 2.0 | 0.00 | 0.00 | 0.00 | 73 | 1009.8 |
| 20260507040057 | 35 | 240 | 0.0 | 2.0 | 0.00 | 0.00 | 0.00 | 73 | 1009.8 |
| 20260507035553 | 35 | 168 | 0.0 | 1.0 | 0.00 | 0.00 | 0.00 | 73 | 1009.9 |
| 20260507035049 | 35 | 205 | 1.0 | 3.0 | 0.00 | 0.00 | 0.00 | 73 | 1010.0 |
| 20260507034546 | 35 | 333 | 0.0 | 1.0 | 0.00 | 0.00 | 0.00 | 72 | 1010.1 |
| 20260507034044 | 35 | 286 | 0.0 | 2.0 | 0.00 | 0.00 | 0.00 | 72 | 1010.1 |
| 20260507033542 | 35 | 191 | 0.0 | 1.0 | 0.00 | 0.00 | 0.00 | 74 | 1009.7 |
| 20260507033039 | 35 | 206 | 0.0 | 2.0 | 0.00 | 0.00 | 0.00 | 74 | 1010.0 |
| 20260507032536 | 35 | 209 | 0.0 | 1.0 | 0.00 | 0.00 | 0.00 | 73 | 1010.1 |
| 20260507032032 | 35 | 333 | 0.0 | 2.0 | 0.00 | 0.00 | 0.00 | 74 | 1010.0 |
| 20260507031528 | 35 | 211 | 1.0 | 1.0 | 0.00 | 0.00 | 0.00 | 74 | 1010.0 |
| 20260507031026 | 35 | 110 | 0.0 | 1.0 | 0.00 | 0.00 | 0.00 | 72 | 1010.2 |
| 20260507030522 | 36 | 212 | 0.0 | 2.0 | 0.00 | 0.00 | 0.00 | 71 | 1010.2 |
| 20260507030021 | 36 | 322 | 0.0 | 2.0 | 0.00 | 0.00 | 0.00 | 71 | 1010.2 |
| 20260507025517 | 37 | 208 | 0.0 | 2.0 | 0.00 | 0.00 | 0.00 | 69 | 1010.2 |
| 20260507025015 | 37 | 216 | 0.0 | 2.0 | 0.00 | 0.00 | 0.00 | 69 | 1010.5 |
| 20260507024512 | 37 | 223 | 0.0 | 2.0 | 0.00 | 0.00 | 0.00 | 69 | 1010.5 |
| 20260507024009 | 36 | 220 | 0.0 | 2.0 | 0.00 | 0.00 | 0.00 | 70 | 1010.1 |
| 20260507023505 | 36 | 22 | 0.0 | 1.0 | 0.00 | 0.00 | 0.00 | 70 | 1010.2 |
| 20260507023003 | 37 | 329 | 0.0 | 1.0 | 0.00 | 0.00 | 0.00 | 67 | 1010.2 |
| 20260507022459 | 37 | 219 | 1.0 | 2.0 | 0.00 | 0.00 | 0.00 | 67 | 1010.3 |
| 20260507021954 | 37 | 201 | 0.0 | 2.0 | 0.00 | 0.00 | 0.00 | 70 | 1010.2 |
| 20260507021450 | 37 | 321 | 0.0 | 1.0 | 0.00 | 0.00 | 0.00 | 69 | 1010.3 |
| 20260507020947 | 37 | 174 | 0.0 | 2.0 | 0.00 | 0.00 | 0.00 | 68 | 1010.5 |
| 20260507020444 | 37 | 285 | 0.0 | 2.0 | 0.00 | 0.00 | 0.00 | 67 | 1010.5 |
| 20260507015941 | 38 | 5 | 1.0 | 2.0 | 0.00 | 0.00 | 0.00 | 66 | 1010.5 |
| 20260507015440 | 39 | 311 | 0.0 | 3.0 | 0.00 | 0.00 | 0.00 | 64 | 1010.4 |
| 20260507014936 | 40 | 346 | 2.0 | 3.0 | 0.00 | 0.00 | 0.00 | 61 | 1010.5 |
| 20260507014433 | 40 | 306 | 2.0 | 4.0 | 0.00 | 0.00 | 0.00 | 61 | 1010.5 |
| 20260507013929 | 40 | 350 | 1.0 | 4.0 | 0.00 | 0.00 | 0.00 | 61 | 1010.4 |
| 20260507013426 | 40 | 331 | 0.0 | 3.0 | 0.00 | 0.00 | 0.00 | 61 | 1010.3 |
| 20260507012924 | 40 | 344 | 2.0 | 3.0 | 0.00 | 0.00 | 0.00 | 61 | 1010.2 |
| 20260507012420 | 41 | 6 | 2.0 | 4.0 | 0.00 | 0.00 | 0.00 | 61 | 1010.3 |
| 20260507011916 | 41 | 4 | 4.0 | 5.0 | 0.00 | 0.00 | 0.00 | 60 | 1010.4 |
| 20260507011413 | 41 | 0 | 3.0 | 4.0 | 0.00 | 0.00 | 0.00 | 59 | 1010.3 |
| 20260507010908 | 42 | 333 | 2.0 | 4.0 | 0.00 | 0.00 | 0.00 | 58 | 1010.2 |
| 20260507010403 | 42 | 323 | 2.0 | 6.0 | 0.00 | 0.00 | 0.00 | 57 | 1010.3 |
| 20260507005900 | 42 | 314 | 2.0 | 6.0 | 0.00 | 0.00 | 0.00 | 58 | 1010.2 |
| 20260507005356 | 42 | 329 | 2.0 | 6.0 | 0.00 | 0.00 | 0.00 | 56 | 1010.3 |
| 20260507004848 | 42 | 264 | 0.0 | 5.0 | 0.00 | 0.00 | 0.00 | 56 | 1010.2 |
| 20260507004345 | 43 | 5 | 3.0 | 6.0 | 0.00 | 0.00 | 0.00 | 56 | 1010.2 |
| 20260507003843 | 43 | 283 | 3.0 | 8.0 | 0.00 | 0.00 | 0.00 | 54 | 1010.1 |
| 20260507003338 | 44 | 313 | 7.0 | 9.0 | 0.00 | 0.00 | 0.00 | 54 | 1010.1 |
| 20260507002833 | 44 | 339 | 3.0 | 11.0 | 0.00 | 0.00 | 0.00 | 54 | 1010.1 |
| 20260507002329 | 44 | 336 | 2.0 | 9.0 | 0.00 | 0.00 | 0.00 | 53 | 1010.1 |
| 20260507001827 | 45 | 23 | 3.0 | 9.0 | 0.00 | 0.00 | 0.00 | 52 | 1010.2 |
| 20260507001324 | 44 | 312 | 3.0 | 10.0 | 0.00 | 0.00 | 0.00 | 52 | 1010.3 |
| 20260507000820 | 44 | 200 | 2.0 | 9.0 | 0.00 | 0.00 | 0.00 | 53 | 1010.2 |
| 20260507000316 | 44 | 326 | 4.0 | 8.0 | 0.00 | 0.00 | 0.00 | 52 | 1010.4 |
| 20260506235812 | 44 | 104 | 1.0 | 8.0 | 0.00 | 0.00 | 0.00 | 53 | 1010.3 |
| 20260506235309 | 44 | 339 | 3.0 | 11.0 | 0.00 | 0.00 | 0.00 | 52 | 1010.2 |
| 20260506234805 | 44 | 342 | 5.0 | 9.0 | 0.00 | 0.00 | 0.00 | 51 | 1010.2 |
| 20260506234303 | 45 | 0 | 8.0 | 14.0 | 0.00 | 0.00 | 0.00 | 50 | 1010.1 |
| 20260506233800 | 45 | 298 | 6.0 | 12.0 | 0.00 | 0.00 | 0.00 | 51 | 1010.2 |
| 20260506233256 | 44 | 335 | 4.0 | 12.0 | 0.00 | 0.00 | 0.00 | 50 | 1010.2 |
| 20260506232753 | 45 | 343 | 7.0 | 16.0 | 0.00 | 0.00 | 0.00 | 50 | 1010.2 |
| 20260506232248 | 45 | 313 | 4.0 | 11.0 | 0.00 | 0.00 | 0.00 | 50 | 1010.2 |
| 20260506231745 | 45 | 333 | 5.0 | 10.0 | 0.00 | 0.00 | 0.00 | 50 | 1010.2 |
| 20260506231244 | 46 | 345 | 3.0 | 13.0 | 0.00 | 0.00 | 0.00 | 50 | 1010.2 |
| 20260506230740 | 46 | 28 | 7.0 | 17.0 | 0.00 | 0.00 | 0.00 | 51 | 1010.2 |
| 20260506230237 | 46 | 313 | 4.0 | 11.0 | 0.00 | 0.00 | 0.00 | 50 | 1010.3 |
| 20260506225733 | 45 | 303 | 5.0 | 7.0 | 0.00 | 0.00 | 0.00 | 50 | 1010.2 |
| 20260506225231 | 45 | 354 | 4.0 | 8.0 | 0.00 | 0.00 | 0.00 | 50 | 1010.3 |
| 20260506224727 | 44 | 3 | 7.0 | 12.0 | 0.00 | 0.00 | 0.00 | 51 | 1010.4 |
| 20260506224224 | 44 | 319 | 9.0 | 11.0 | 0.00 | 0.00 | 0.00 | 51 | 1010.6 |
| 20260506223720 | 44 | 297 | 2.0 | 14.0 | 0.00 | 0.00 | 0.00 | 51 | 1010.3 |
| 20260506223216 | 45 | 305 | 8.0 | 15.0 | 0.00 | 0.00 | 0.00 | 49 | 1010.4 |
| 20260506222714 | 45 | 301 | 5.0 | 11.0 | 0.00 | 0.00 | 0.00 | 50 | 1010.5 |
| 20260506222208 | 44 | 295 | 5.0 | 14.0 | 0.00 | 0.00 | 0.00 | 51 | 1010.5 |
| 20260506221707 | 44 | 353 | 9.0 | 13.0 | 0.00 | 0.00 | 0.00 | 52 | 1010.4 |
| 20260506221205 | 44 | 302 | 4.0 | 15.0 | 0.00 | 0.00 | 0.00 | 51 | 1010.4 |
| 20260506220702 | 44 | 279 | 7.0 | 15.0 | 0.00 | 0.00 | 0.00 | 50 | 1010.4 |
| 20260506220156 | 45 | 321 | 7.0 | 17.0 | 0.00 | 0.00 | 0.00 | 51 | 1010.6 |
| 20260506215653 | 44 | 261 | 4.0 | 20.0 | 0.00 | 0.00 | 0.00 | 51 | 1010.6 |
| 20260506215148 | 44 | 309 | 4.0 | 13.0 | 0.00 | 0.00 | 0.00 | 51 | 1010.6 |
| 20260506214646 | 44 | 298 | 3.0 | 10.0 | 0.00 | 0.00 | 0.00 | 51 | 1010.6 |
| 20260506214143 | 44 | 31 | 0.0 | 10.0 | 0.00 | 0.00 | 0.00 | 51 | 1010.6 |
| 20260506213642 | 44 | 299 | 8.0 | 15.0 | 0.00 | 0.00 | 0.00 | 51 | 1010.7 |
| 20260506213139 | 43 | 246 | 3.0 | 12.0 | 0.00 | 0.00 | 0.00 | 52 | 1010.8 |
| 20260506212636 | 43 | 129 | 6.0 | 14.0 | 0.00 | 0.00 | 0.00 | 51 | 1010.9 |
| 20260506212130 | 43 | 319 | 6.0 | 14.0 | 0.00 | 0.00 | 0.00 | 52 | 1010.7 |
| 20260506211626 | 43 | 310 | 4.0 | 15.0 | 0.00 | 0.00 | 0.00 | 52 | 1011.0 |
| 20260506211123 | 43 | 236 | 3.0 | 14.0 | 0.00 | 0.00 | 0.00 | 52 | 1010.9 |
| 20260506210620 | 43 | 343 | 5.0 | 17.0 | 0.00 | 0.00 | 0.00 | 52 | 1011.1 |
| 20260506210117 | 43 | 314 | 3.0 | 20.0 | 0.00 | 0.00 | 0.00 | 52 | 1010.7 |
| 20260506205614 | 43 | 318 | 5.0 | 13.0 | 0.00 | 0.00 | 0.00 | 51 | 1011.0 |
| 20260506205108 | 43 | 159 | 2.0 | 22.0 | 0.00 | 0.00 | 0.00 | 51 | 1011.0 |
| 20260506204607 | 43 | 218 | 3.0 | 15.0 | 0.00 | 0.00 | 0.00 | 52 | 1011.0 |
| 20260506204103 | 43 | 292 | 6.0 | 15.0 | 0.00 | 0.00 | 0.00 | 53 | 1010.9 |
| 20260506203602 | 43 | 291 | 5.0 | 14.0 | 0.00 | 0.00 | 0.00 | 52 | 1011.0 |
| 20260506203058 | 43 | 301 | 4.0 | 11.0 | 0.00 | 0.00 | 0.00 | 51 | 1011.0 |
| 20260506202556 | 43 | 264 | 4.0 | 14.0 | 0.00 | 0.00 | 0.00 | 52 | 1010.8 |
| 20260506202052 | 42 | 272 | 3.0 | 15.0 | 0.00 | 0.00 | 0.00 | 52 | 1011.1 |
| 20260506201549 | 42 | 257 | 5.0 | 11.0 | 0.00 | 0.00 | 0.00 | 53 | 1011.0 |
| 20260506201046 | 42 | 316 | 4.0 | 17.0 | 0.00 | 0.00 | 0.00 | 52 | 1011.0 |
| 20260506200542 | 42 | 313 | 7.0 | 14.0 | 0.00 | 0.00 | 0.00 | 53 | 1011.0 |
| 20260506200039 | 42 | 309 | 10.0 | 19.0 | 0.00 | 0.00 | 0.00 | 52 | 1011.1 |
| 20260506195536 | 42 | 218 | 0.0 | 12.0 | 0.00 | 0.00 | 0.00 | 53 | 1011.1 |
| 20260506195032 | 42 | 274 | 6.0 | 19.0 | 0.00 | 0.00 | 0.00 | 53 | 1011.1 |
| 20260506194530 | 42 | 303 | 3.0 | 10.0 | 0.00 | 0.00 | 0.00 | 53 | 1011.1 |
| 20260506194026 | 42 | 318 | 2.0 | 15.0 | 0.00 | 0.00 | 0.00 | 53 | 1011.0 |
| 20260506193523 | 42 | 259 | 5.0 | 14.0 | 0.00 | 0.00 | 0.00 | 53 | 1011.1 |
| 20260506193021 | 42 | 278 | 5.0 | 13.0 | 0.00 | 0.00 | 0.00 | 53 | 1011.3 |
| 20260506192517 | 42 | 161 | 2.0 | 13.0 | 0.00 | 0.00 | 0.00 | 52 | 1011.2 |
| 20260506192013 | 42 | 32 | 3.0 | 15.0 | 0.00 | 0.00 | 0.00 | 52 | 1011.1 |
| 20260506191510 | 43 | 242 | 3.0 | 12.0 | 0.00 | 0.00 | 0.00 | 53 | 1011.2 |
| 20260506191006 | 42 | 322 | 7.0 | 23.0 | 0.00 | 0.00 | 0.00 | 52 | 1011.1 |
| 20260506190503 | 42 | 310 | 4.0 | 26.0 | 0.00 | 0.00 | 0.00 | 52 | 1011.0 |
| 20260506190000 | 42 | 78 | 2.0 | 10.0 | 0.00 | 0.00 | 0.00 | 51 | 1011.1 |
| 20260506185458 | 42 | 312 | 10.0 | 16.0 | 0.00 | 0.00 | 0.00 | 52 | 1011.3 |
| 20260506184954 | 42 | 273 | 7.0 | 12.0 | 0.00 | 0.00 | 0.00 | 52 | 1011.3 |
| 20260506184451 | 42 | 309 | 5.0 | 14.0 | 0.00 | 0.00 | 0.00 | 52 | 1011.3 |
| 20260506183943 | 42 | 241 | 6.0 | 22.0 | 0.00 | 0.00 | 0.00 | 52 | 1011.1 |
| 20260506183438 | 41 | 327 | 4.0 | 20.0 | 0.00 | 0.00 | 0.00 | 52 | 1011.1 |
| 20260506182935 | 42 | 291 | 6.0 | 15.0 | 0.00 | 0.00 | 0.00 | 52 | 1011.1 |
| 20260506182433 | 42 | 273 | 5.0 | 17.0 | 0.00 | 0.00 | 0.00 | 52 | 1011.1 |
| 20260506181930 | 42 | 326 | 5.0 | 10.0 | 0.00 | 0.00 | 0.00 | 52 | 1011.0 |
| 20260506181428 | 42 | 5 | 2.0 | 13.0 | 0.00 | 0.00 | 0.00 | 52 | 1011.1 |
| 20260506180924 | 42 | 343 | 8.0 | 15.0 | 0.00 | 0.00 | 0.00 | 52 | 1011.3 |
| 20260506180420 | 42 | 204 | 2.0 | 14.0 | 0.00 | 0.00 | 0.00 | 52 | 1011.0 |
| 20260506175918 | 42 | 268 | 4.0 | 11.0 | 0.00 | 0.00 | 0.00 | 50 | 1011.1 |
| 20260506175414 | 42 | 0 | 3.0 | 20.0 | 0.00 | 0.00 | 0.00 | 51 | 1011.1 |
| 20260506174911 | 42 | 111 | 2.0 | 15.0 | 0.00 | 0.00 | 0.00 | 52 | 1011.0 |
| 20260506174408 | 42 | 248 | 6.0 | 15.0 | 0.00 | 0.00 | 0.00 | 52 | 1011.1 |
| 20260506173906 | 42 | 180 | 7.0 | 14.0 | 0.00 | 0.00 | 0.00 | 52 | 1011.1 |
| 20260506173402 | 42 | 329 | 19.0 | 19.0 | 0.00 | 0.00 | 0.00 | 52 | 1011.2 |
| 20260506172900 | 42 | 102 | 2.0 | 26.0 | 0.00 | 0.00 | 0.00 | 53 | 1011.1 |
| 20260506172356 | 43 | 226 | 2.0 | 11.0 | 0.00 | 0.00 | 0.00 | 53 | 1011.2 |
| 20260506171853 | 43 | 330 | 2.0 | 14.0 | 0.00 | 0.00 | 0.00 | 53 | 1011.2 |
| 20260506171351 | 42 | 282 | 3.0 | 11.0 | 0.00 | 0.00 | 0.00 | 53 | 1011.6 |
| 20260506170848 | 42 | 217 | 5.0 | 15.0 | 0.00 | 0.00 | 0.00 | 52 | 1011.1 |
| 20260506170343 | 42 | 258 | 2.0 | 15.0 | 0.00 | 0.00 | 0.00 | 51 | 1011.0 |
| 20260506165837 | 42 | 257 | 4.0 | 15.0 | 0.00 | 0.00 | 0.00 | 53 | 1011.1 |
| 20260506165334 | 43 | 350 | 7.0 | 17.0 | 0.00 | 0.00 | 0.00 | 52 | 1011.5 |
| 20260506164825 | 42 | 327 | 7.0 | 17.0 | 0.00 | 0.00 | 0.00 | 52 | 1011.1 |
| 20260506164322 | 43 | 286 | 3.0 | 20.0 | 0.00 | 0.00 | 0.00 | 51 | 1011.2 |
| 20260506163820 | 43 | 295 | 4.0 | 16.0 | 0.00 | 0.00 | 0.00 | 53 | 1011.2 |
| 20260506163314 | 43 | 313 | 7.0 | 28.0 | 0.00 | 0.00 | 0.00 | 53 | 1011.2 |
| 20260506162810 | 42 | 323 | 6.0 | 23.0 | 0.00 | 0.00 | 0.00 | 52 | 1011.0 |
| 20260506162308 | 42 | 313 | 4.0 | 22.0 | 0.00 | 0.00 | 0.00 | 52 | 1011.0 |
| 20260506161804 | 43 | 216 | 10.0 | 16.0 | 0.00 | 0.00 | 0.00 | 53 | 1011.0 |
| 20260506161302 | 43 | 306 | 5.0 | 22.0 | 0.00 | 0.00 | 0.00 | 51 | 1011.0 |
| 20260506160754 | 42 | 287 | 8.0 | 27.0 | 0.00 | 0.00 | 0.00 | 51 | 1010.8 |
| 20260506160250 | 42 | 10 | 2.0 | 29.0 | 0.00 | 0.00 | 0.00 | 52 | 1011.1 |
| 20260506155749 | 43 | 318 | 11.0 | 23.0 | 0.00 | 0.00 | 0.00 | 51 | 1010.8 |
| 20260506155245 | 43 | 323 | 4.0 | 14.0 | 0.00 | 0.00 | 0.00 | 51 | 1010.8 |
| 20260506153353 | 46 | 72 | 3.0 | 19.0 | 0.00 | 0.00 | 0.00 | 49 | 1010.6 |
| 20260506152850 | 44 | 319 | 5.0 | 16.0 | 0.00 | 0.00 | 0.00 | 50 | 1010.6 |
| 20260506152347 | 43 | 211 | 5.0 | 19.0 | 0.00 | 0.00 | 0.00 | 51 | 1010.7 |
| 20260506151845 | 42 | 203 | 7.0 | 18.0 | 0.00 | 0.00 | 0.00 | 51 | 1010.8 |
| 20260506151342 | 43 | 288 | 3.0 | 16.0 | 0.00 | 0.00 | 0.00 | 51 | 1010.7 |
| 20260506150839 | 44 | 338 | 5.0 | 23.0 | 0.00 | 0.00 | 0.00 | 48 | 1010.9 |
| 20260506150335 | 45 | 288 | 4.0 | 16.0 | 0.00 | 0.00 | 0.00 | 51 | 1010.7 |
| 20260506145832 | 43 | 286 | 3.0 | 15.0 | 0.00 | 0.00 | 0.00 | 52 | 1010.9 |
| 20260506145329 | 42 | 352 | 3.0 | 20.0 | 0.00 | 0.00 | 0.00 | 52 | 1010.6 |
| 20260506144826 | 43 | 287 | 9.0 | 14.0 | 0.00 | 0.00 | 0.00 | 53 | 1010.8 |